Flag for Germany

Past Weather in Kempen, North Rhine-Westphalia, Germany — Yesterday and Last 2 Weeks

Now
66 °F

Sunny.


Feels Like: 66 °F
Forecast: 94 / 72 °F
Wind: 2 mph from North

Location: Monchengladbach Airport

Current Time: Aug 10, 2020 at 4:23:41 am

Latest Report: Aug 10, 2020 at 3:20 am


Visibility: N/A

Pressure: 29.98 "Hg

Humidity: 83%

Dew Point: 61 °F

Location of KempenLocation

Past Weather in Kempen — Graph

°F

Kempen Temperature Yesterday

Maximum temperature yesterday: 91 °F (at 5:20 pm)
Minimum temperature yesterday: 70 °F (at 1:20 am)
Average temperature yesterday: 78 °F

High & Low Weather Summary for the Past Weeks

 TemperatureHumidityPressure
High97 °F (Aug 8, 3:50 pm)100% (Aug 3, 3:50 am)30.15 "Hg (Aug 3, 3:50 am)
Low48 °F (Aug 3, 5:20 am)23% (Jul 31, 5:50 pm)29.71 "Hg (Jul 27, 7:50 pm)
Average71 °F59%30.00 "Hg
* Reported Jul 26 3:20 am — Aug 10 3:20 am, Kempen. Weather by CustomWeather, © 2020

Note: Actual official high and low records may vary slightly from our data, if they occured in-between our weather recording intervals... More about our weather records

Kempen Weather History for the Previous 24 Hours

Scroll right to see more
 ConditionsComfort  
Time TempWeatherWind HumidityBarometerVisibility
3:20 am
Mon, Aug 10
66 °FSunny.2 mph83%29.98 "HgN/A
2:50 am66 °FSunny.3 mph83%29.98 "HgN/A
2:20 am66 °FSunny.2 mph83%30.01 "HgN/A
1:50 am68 °FSunny.2 mph78%30.01 "HgN/A
1:20 am66 °FSunny.2 mph83%29.98 "HgN/A
12:50 am68 °FSunny.No wind78%29.98 "HgN/A
12:20 am68 °FSunny.2 mph78%29.98 "HgN/A
11:50 pm
Sun, Aug 9
70 °FSunny.1 mph73%29.98 "HgN/A
11:20 pm72 °FSunny.3 mph69%29.98 "HgN/A
10:50 pm75 °FPassing clouds.5 mph61%29.98 "HgN/A
10:20 pm73 °FScattered clouds.2 mph65%29.98 "HgN/A
9:50 pm77 °FSunny.3 mph57%30.01 "HgN/A
9:20 pm79 °FClear.6 mph54%29.98 "HgN/A
8:50 pm81 °FPassing clouds.5 mph51%29.98 "HgN/A
8:20 pm82 °FPassing clouds.7 mph45%29.98 "HgN/A
7:50 pm86 °FPassing clouds.7 mph46%29.98 "HgN/A
7:20 pm88 °FClear.1 mph49%29.95 "Hg10 mi
6:50 pm91 °FClear.1 mph38%29.95 "Hg10 mi
6:20 pm91 °FPassing clouds.3 mph36%29.95 "HgN/A
5:50 pm91 °FPassing clouds.5 mph41%29.98 "HgN/A
5:20 pm91 °FPassing clouds.6 mph38%29.98 "HgN/A
4:50 pm90 °FPassing clouds.3 mph41%29.98 "HgN/A
4:20 pm88 °FPassing clouds.5 mph43%30.01 "HgN/A
3:50 pm88 °FPassing clouds.8 mph46%30.01 "HgN/A
3:20 pm86 °FPassing clouds.5 mph49%30.01 "HgN/A
2:50 pm86 °FClear.6 mph46%30.01 "Hg10 mi
2:20 pm88 °FWarm.6 mph46%30.01 "HgN/A
1:50 pm84 °FPassing clouds.6 mph51%30.04 "HgN/A
1:20 pm79 °FPassing clouds.6 mph70%30.04 "HgN/A
12:50 pm79 °FPassing clouds.6 mph65%30.04 "HgN/A
12:20 pm81 °FClear.2 mph58%30.04 "Hg10 mi
11:50 am81 °FSunny.2 mph62%30.04 "Hg10 mi
11:20 am81 °FSunny.2 mph62%30.04 "Hg10 mi
10:50 am79 °FSunny.1 mph61%30.04 "Hg10 mi
10:20 am79 °FSunny.No wind65%30.04 "Hg10 mi
9:50 am77 °FSunny.2 mph65%30.04 "Hg10 mi
9:20 am75 °FSunny.3 mph69%30.04 "Hg10 mi
8:50 am73 °FSunny.No wind74%30.04 "Hg10 mi
8:20 am73 °FClear.1 mph74%30.04 "Hg6 mi
7:50 am72 °FSunny.2 mph78%30.04 "Hg10 mi
7:20 am72 °FPartly sunny.5 mph73%30.04 "HgN/A
6:50 am72 °FPartly sunny.3 mph73%30.04 "HgN/A
6:20 am72 °FPartly sunny.3 mph73%30.04 "HgN/A
5:50 am72 °FBroken clouds.3 mph73%30.04 "HgN/A
5:20 am70 °FBroken clouds.5 mph78%30.04 "HgN/A
4:50 am70 °FPartly sunny.3 mph73%30.04 "HgN/A
4:20 am70 °FPartly sunny.3 mph73%30.04 "HgN/A
Weather by CustomWeather, © 2020

See weather overview